Date String (YYYY-MM-DD hh:mm:ss) UTC,Instrument flags,Ambient pressure (hPa),Sample flow (lpm),Bypass flow (lpm),Sample temperature (°C),Ambient temperature (°C),ASC tube jacket temperature (°C),LED temperature (°C),Box temperature (°C),Sample RH (%),Span deviation,Mass concentration (μg/m³),Mass concentration (μg/m³),Mass concentration (μg/m³)
DateTimeUTC,F1_M11,P_M11,Q1_M11,Q2_M11,T1_M11,T2_M11,T3_M11,T4_M11,T5_M11,U1_M11,ZSPAN_M11,X0_M11,X2_M11,X1_M11
2022-02-18 23:00:00,,0829.5,5.00,0.00,27.0,26.1,00.0,36.2,28.6,08.1,0000.0,0013.03,0006.37,0005.93
2022-02-18 23:01:00,,0829.5,4.99,0.00,26.9,26.1,00.0,36.2,28.6,08.1,0000.0,0012.38,0006.34,0005.91
2022-02-18 23:02:00,,0829.5,4.99,0.00,26.9,26.1,00.0,36.2,28.6,08.3,0000.0,0012.19,0006.32,0005.89
2022-02-18 23:03:00,,0829.5,5.02,0.00,26.9,26.1,00.0,36.1,28.5,08.3,0000.0,0011.86,0006.33,0005.89
2022-02-18 23:04:00,,0829.4,5.00,0.00,26.9,26.1,00.0,36.1,28.5,08.4,0000.0,0011.87,0006.35,0005.90
2022-02-18 23:05:00,,0829.4,5.00,0.00,26.8,26.0,00.0,36.1,28.5,08.3,0000.0,0011.39,0006.34,0005.89
2022-02-18 23:06:00,,0829.4,5.00,0.00,26.8,26.0,00.0,36.1,28.5,08.2,0000.0,0011.28,0006.30,0005.88
2022-02-18 23:07:00,,0829.3,5.01,0.00,26.8,26.0,00.0,36.0,28.4,08.0,0000.0,0010.76,0006.25,0005.84
2022-02-18 23:08:00,,0829.3,5.01,0.00,26.8,26.0,00.0,36.0,28.4,08.2,0000.0,0010.60,0006.22,0005.79
2022-02-18 23:09:00,,0829.3,4.99,0.00,26.7,25.9,00.0,36.0,28.4,08.2,0000.0,0010.10,0006.17,0005.74
2022-02-18 23:10:00,,0829.3,5.00,0.00,26.7,25.9,00.0,35.9,28.4,08.0,0000.0,0010.10,0006.14,0005.70
2022-02-18 23:11:00,,0829.5,5.01,0.00,26.7,25.9,00.0,35.9,28.4,08.2,0000.0,0010.79,0006.12,0005.68
2022-02-18 23:12:00,,0829.3,5.01,0.00,26.7,25.9,00.0,35.9,28.3,07.8,0000.0,0010.83,0006.06,0005.64
2022-02-18 23:13:00,,0829.2,5.00,0.00,26.6,25.8,00.0,35.9,28.3,08.1,0000.0,0010.87,0005.99,0005.60
2022-02-18 23:14:00,,0829.2,4.99,0.00,26.6,25.8,00.0,35.8,28.3,08.2,0000.0,0010.69,0005.90,0005.55
2022-02-18 23:15:00,,0829.4,5.01,0.00,26.6,25.8,00.0,35.8,28.2,08.2,0000.0,0010.51,0005.82,0005.52
2022-02-18 23:16:00,,0829.4,5.00,0.00,26.6,25.7,00.0,35.8,28.2,08.3,0000.0,0010.49,0005.81,0005.51
2022-02-18 23:17:00,,0829.3,4.99,0.00,26.5,25.7,00.0,35.8,28.2,08.4,0000.0,0010.51,0005.83,0005.52
2022-02-18 23:18:00,,0829.2,4.99,0.00,26.5,25.7,00.0,35.7,28.1,08.3,0000.0,0010.51,0005.83,0005.54
2022-02-18 23:19:00,,0829.2,4.99,0.00,26.4,25.6,00.0,35.7,28.1,08.2,0000.0,0010.52,0005.85,0005.55
2022-02-18 23:20:00,,0829.5,5.01,0.00,26.4,25.6,00.0,35.7,28.1,08.0,0000.0,0010.41,0005.87,0005.57
2022-02-18 23:21:00,,0829.3,4.99,0.00,26.4,25.6,00.0,35.7,28.1,07.9,0000.0,0010.75,0005.89,0005.57
2022-02-18 23:22:00,,0829.3,5.00,0.00,26.4,25.6,00.0,35.6,28.1,08.1,0000.0,0010.45,0005.87,0005.56
2022-02-18 23:23:00,,0829.3,5.00,0.00,26.4,25.6,00.0,35.6,28.1,08.5,0000.0,0010.36,0005.89,0005.58
2022-02-18 23:24:00,,0829.2,5.00,0.00,26.4,25.7,00.0,35.6,28.1,08.3,0000.0,0010.26,0005.92,0005.61
2022-02-18 23:25:00,,0829.3,5.00,0.00,26.4,25.7,00.0,35.6,28.1,08.1,0000.0,0010.34,0005.96,0005.64
2022-02-18 23:26:00,,0829.5,5.00,0.00,26.4,25.7,00.0,35.6,28.1,08.4,0000.0,0010.45,0006.01,0005.65
2022-02-18 23:27:00,,0829.6,5.00,0.00,26.4,25.6,00.0,35.6,28.1,08.0,0000.0,0010.43,0006.00,0005.64
2022-02-18 23:28:00,,0829.3,5.00,0.00,26.3,25.6,00.0,35.5,28.0,08.2,0000.0,0010.43,0006.01,0005.65
2022-02-18 23:29:00,,0829.2,5.00,0.00,26.3,25.5,00.0,35.5,27.9,08.2,0000.0,0010.51,0006.05,0005.66
2022-02-18 23:30:00,,0829.2,5.00,0.00,26.2,25.4,00.0,35.5,27.8,08.1,0000.0,0010.58,0006.08,0005.66
2022-02-18 23:31:00,,0829.2,5.01,0.00,26.2,25.3,00.0,35.5,27.8,07.9,0000.0,0010.63,0006.08,0005.65
2022-02-18 23:32:00,,0829.2,4.99,0.00,26.1,25.3,00.0,35.4,27.7,07.7,0000.0,0010.18,0006.06,0005.65
2022-02-18 23:33:00,,0829.2,5.00,0.00,26.1,25.3,00.0,35.4,27.7,07.8,0000.0,0009.72,0006.07,0005.64
2022-02-18 23:34:00,,0829.2,4.99,0.00,26.0,25.2,00.0,35.3,27.6,07.9,0000.0,0009.47,0006.05,0005.61
2022-02-18 23:35:00,,0829.2,5.00,0.00,26.0,25.1,00.0,35.3,27.6,07.7,0000.0,0009.41,0005.99,0005.54
2022-02-18 23:36:00,,0829.2,5.00,0.00,26.0,25.1,00.0,35.3,27.6,07.9,0000.0,0009.35,0005.92,0005.49
2022-02-18 23:37:00,,0829.2,5.01,0.00,25.9,25.1,00.0,35.2,27.6,07.7,0000.0,0009.22,0005.83,0005.42
2022-02-18 23:38:00,,0829.2,4.99,0.00,25.9,25.1,00.0,35.2,27.5,07.6,0000.0,0009.19,0005.78,0005.36
2022-02-18 23:39:00,,0829.3,4.99,0.00,25.9,25.1,00.0,35.2,27.6,07.7,0000.0,0009.19,0005.74,0005.28
2022-02-18 23:40:00,,0829.2,5.00,0.00,25.9,25.0,00.0,35.2,27.5,07.8,0000.0,0009.07,0005.64,0005.20
2022-02-18 23:41:00,,0829.2,5.00,0.00,25.9,25.0,00.0,35.1,27.5,07.6,0000.0,0008.86,0005.52,0005.13
2022-02-18 23:42:00,,0829.2,5.00,0.00,25.8,25.0,00.0,35.1,27.5,07.6,0000.0,0008.63,0005.43,0005.05
2022-02-18 23:43:00,,0829.2,5.01,0.00,25.8,25.0,00.0,35.1,27.5,07.5,0000.0,0008.49,0005.34,0004.97
2022-02-18 23:44:00,,0829.2,5.00,0.00,25.8,25.0,00.0,35.1,27.5,07.5,0000.0,0008.37,0005.24,0004.89
2022-02-18 23:45:00,,0829.2,5.00,0.00,25.8,25.0,00.0,35.0,27.4,07.6,0000.0,0008.22,0005.15,0004.81
2022-02-18 23:46:00,,0829.2,5.00,0.00,25.8,25.0,00.0,35.0,27.4,07.7,0000.0,0008.17,0005.11,0004.75
2022-02-18 23:47:00,,0829.2,5.01,0.00,25.7,24.9,00.0,35.0,27.4,07.5,0000.0,0008.04,0005.04,0004.70
2022-02-18 23:48:00,,0829.2,5.00,0.00,25.7,24.9,00.0,35.0,27.4,07.3,0000.0,0007.87,0004.98,0004.65
2022-02-18 23:49:00,,0829.2,5.00,0.00,25.7,24.9,00.0,34.9,27.3,07.5,0000.0,0007.86,0004.92,0004.60
2022-02-18 23:50:00,,0829.3,4.98,0.00,25.7,24.8,00.0,34.9,27.3,07.5,0000.0,0007.82,0004.85,0004.55
2022-02-18 23:51:00,,0829.2,5.00,0.00,25.6,24.8,00.0,34.9,27.3,07.6,0000.0,0007.76,0004.78,0004.50
2022-02-18 23:52:00,,0829.3,5.01,0.00,25.6,24.8,00.0,34.9,27.2,07.6,0000.0,0007.72,0004.75,0004.48
2022-02-18 23:53:00,,0829.4,5.01,0.00,25.6,24.8,00.0,34.8,27.2,07.6,0000.0,0007.70,0004.74,0004.47
2022-02-18 23:54:00,,0829.4,5.00,0.00,25.6,24.8,00.0,34.8,27.2,07.7,0000.0,0007.75,0004.73,0004.45
2022-02-18 23:55:00,,0829.5,5.00,0.00,25.6,24.8,00.0,34.8,27.2,07.6,0000.0,0007.78,0004.73,0004.46
2022-02-18 23:56:00,,0829.5,5.00,0.00,25.6,24.8,00.0,34.8,27.2,07.7,0000.0,0007.84,0004.74,0004.47
2022-02-18 23:57:00,,0829.5,5.00,0.00,25.5,24.8,00.0,34.8,27.2,07.7,0000.0,0008.12,0004.75,0004.48
2022-02-18 23:58:00,,0829.5,5.00,0.00,25.5,24.7,00.0,34.7,27.2,07.7,0000.0,0008.57,0004.77,0004.51
2022-02-18 23:59:00,,0829.5,5.00,0.00,25.5,24.7,00.0,34.7,27.1,07.8,0000.0,0008.96,0004.81,0004.54
